Location: Darlington Observatory
(36.4817°N, 105.8156°W)
Time: 20:09:58
(UTC-07:00)

MOS 1 - Visible Passes

Search period start: 02 March 2015 00:00
Search period end: 12 March 2015 01:00
Orbit: 878 x 893 km, 99.2° (Epoch: 01 March)

Date Brightness Start Highest point End Pass type
(mag) Time Alt. Az. Time Alt. Az. Time Alt. Az.
02 Mar 6.2 04:13:11 10° NE 04:17:53 28° E 04:22:43 10° SSE visible
02 Mar 4.8 05:54:11 10° N 05:59:20 36° WNW 06:04:25 10° SW visible
03 Mar 6.3 04:11:36 10° NE 04:16:15 27° E 04:21:01 10° SSE visible
03 Mar 4.8 05:52:32 10° N 05:57:43 37° WNW 06:02:51 10° SW visible
04 Mar 6.3 04:10:02 10° NE 04:14:37 26° E 04:19:19 10° SSE visible
04 Mar 4.8 05:50:53 10° N 05:56:06 39° WNW 06:01:17 10° SW visible
05 Mar 6.4 04:08:28 10° NE 04:12:58 25° E 04:17:36 10° SSE visible
05 Mar 4.7 05:49:13 10° N 05:54:30 40° WNW 05:59:42 10° SW visible
06 Mar 6.5 04:06:55 10° NE 04:11:20 24° E 04:15:54 10° SSE visible
06 Mar 4.7 05:47:34 10° N 05:52:53 42° WNW 05:58:08 10° SW visible
07 Mar 6.5 04:05:21 10° NE 04:09:41 23° E 04:14:11 10° SSE visible
07 Mar 4.6 05:45:56 10° N 05:51:16 43° WNW 05:56:34 10° SW visible
08 Mar 6.6 05:03:48 10° NE 05:08:03 22° E 05:12:28 10° SE visible
08 Mar 4.6 06:44:16 10° N 06:49:39 45° WNW 06:54:59 10° SW visible
09 Mar 6.6 05:02:15 10° NE 05:06:24 21° E 05:10:44 10° SE visible
09 Mar 4.6 06:42:38 10° N 06:48:02 46° WNW 06:53:24 10° SW visible
10 Mar 6.7 05:00:43 10° NE 05:04:45 21° E 05:09:01 10° SE visible
10 Mar 4.5 06:40:59 10° N 06:46:25 48° WNW 06:51:49 10° SW visible
11 Mar 6.7 04:59:10 10° NE 05:03:07 20° E 05:07:16 10° SE visible
11 Mar 4.5 06:39:20 10° N 06:44:48 50° WNW 06:50:14 10° SW visible
